Tracking 21473 objects as of 27-Sep-2020
HD Live streaming from Space Station
objects crossing your sky now

CZ-3B R/B

Track CZ-3B R/B now!


NORAD ID: 45808
Int'l Code: 2020-040B
Perigee: 183.6 km
Apogee: 33,507.4 km
Inclination: 28.0 °
Period: 586.8 minutes
Semi major axis: 23216 km
RCS: Unknown
Launch date: June 23, 2020
Source: People's Republic of China (PRC)
Launch site: Xichang Space Center, China (XSC)

Note: This is a ROCKET BODY
aabbcc
Your satellite tracking list
Your tracking list is empty




NASA's NSSDC Master Catalog

Two Line Element Set (TLE):
1 45808U 20040B   20271.05671374 +.00030805 +56051-6 +11179-2 0  9996
2 45808 028.0454 255.8295 7176763 242.2666 029.6863 02.45419227002340
Source of the keplerian elements: AFSPC